Tracking 29892 objects as of 21-Nov-2024
HD Live streaming from Space Station
objects crossing your sky now

SL-8 DEB

Track SL-8 DEB now!
10-day predictions


NORAD ID: 6289
Int'l Code: 1969-024C
Perigee: 1,154.7 km
Apogee: 1,169.5 km
Inclination: 74.0 °
Period: 108.4 minutes
Semi major axis: 7533 km
RCS: 0.0756 m2 (small)
Launch date: March 17, 1969
Source: Commonwealth of Independent States (former USSR) (CIS)
Launch site: PLESETSK MISSILE AND SPACE COMPLEX (PKMTR)

Note: This is SATELLITE DEBRIS
Your satellite tracking list
STARLINK-5709
Track 1 satellite(s)




NASA's NSSDC Master Catalog

Two Line Element Set (TLE):
1 06289U 69024C   24325.81987479  .00000458  00000-0  10565-2 0  9991
2 06289  73.9869  99.9511 0009840  10.6627 142.7569 13.27834788689396
Source of the keplerian elements: AFSPC